Regional Weather Roundup
Issued by NWS

Home | Current Version | Previous Version | Text Only | Print | Product List | Glossary On
Versions: 1 2 3 4 5 6 7 8 9 10 11 12 13 14 15 16 17 18 19 20 21 22 23 24 25 26 27
000
ASUS42 KTBW 262217
RWRFL
FLORIDA REGIONAL WEATHER ROUNDUP
NATIONAL WEATHER SERVICE TAMPA BAY RUSKIN FL
600 PM EDT THU MAY 26 2016

NOTE: "FAIR" INDICATES FEW OR NO CLOUDS BELOW 12,000 FEET WITH NO
SIGNIFICANT WEATHER AND/OR OBSTRUCTIONS TO VISIBILITY.

FLZ001>010-012>015-112-114-115-262300-
PANHANDLE FLORIDA

CITY           SKY/WX    TMP DP  RH WIND       PRES   REMARKS
PENSACOLA      MOSUNNY   83  68  60 SE13      30.07F
PENSACOLA NAS  MOSUNNY   82  71  69 S10       30.07F
MILTON NAS     PTSUNNY   83  67  58 S14       30.07
CRESTVIEW      SUNNY     86  62  44 S13       30.08F
DUKE FIELD     MOSUNNY   86  63  45 SW13      30.06F
VALPARAISO     MOSUNNY   82  70  67 S10       30.07F
MARY ESTHER    SUNNY     82  70  68 S12       30.06F
TRI COUNTY     FAIR      87  67  51 SW8       30.05F
PANAMA CITY    FAIR      83  69  62 S12       30.06F
TYNDALL AFB    SUNNY     82  67  59 SW10      30.07F
APALACHICOLA   SUNNY     82  68  62 S8        30.07F

STATION/POSITION SKY/WX   TEMP    WIND        PRES    WAVE   SWELL
                          AIR SEA DIR/SP/G            HT/PER HT/PER
                          (F)     (DEG/KT/KT) (MB)    (FT/S) (FT/S)
30.1N   87.6W              80 81  160/  8/ 10 1017.5F   2/ 6   2/ 6
29.2N   88.2W              79 80  140/ 12/ 14 1018.0F
28.8N   86.0W              79 81  130/  8/  8 1018.6F   3/ 5   3/ 5
PANAMA CITY BEAC           78 80  180/ 11/ 12 1019.2F
TOWER C                    78     190/  2/  3 1019.1F
28.5N   84.5W              78 79   90/  4/  4 1017.9F   3/ 5   2/ 5

$$
FLZ011-016>038-118-127-128-134-139-239-262300-
NORTH FLORIDA

CITY           SKY/WX    TMP DP  RH WIND       PRES   REMARKS
MARIANNA       CLOUDY    86  64  47 S8        30.04F
TALLAHASSEE    MOSUNNY   90  57  32 E12       30.05F
PERRY          MOSUNNY   88  58  35 N7        30.06F
LIVE OAK       FAIR     N/A N/A N/A NE6       30.08F
CROSS CITY       N/A     90  56  31 E9        30.04F
LAKE CITY      FAIR      84  55  37 E10       30.07F
GAINESVILLE    SUNNY     85  55  35 E12       30.07F
WILLISTON      FAIR      88  54  31 NE6       30.06F
PALATKA        FAIR      82  59  44 E13       30.10S
MAYPORT NAS    MOSUNNY   79  61  53 E12       30.11F
JACKSONVILLE   MOSUNNY   81  57  43 E12       30.10F
JAX NAS        MOSUNNY   85  50  29 E12       30.11F
JAX CECIL      SUNNY     82  54  36 E12       30.10F
FERNANDINA BEA FAIR      82  61  47 E9        30.11S
ST AUGUSTINE   SUNNY     81  64  56 E15       30.11F
PALM COAST     PTSUNNY   81  64  57 E12       30.09F

STATION/POSITION SKY/WX   TEMP    WIND        PRES    WAVE   SWELL
                          AIR SEA DIR/SP/G            HT/PER HT/PER
                          (F)     (DEG/KT/KT) (MB)    (FT/S) (FT/S)
SHELL POINT                83     190/  5/  7 1017.5
KEATON BEACH               80     290/  9/ 11 1017.4F
CEDAR KEY                  80     280/  9/ 12 1017.9F
FERNANDINA                 82 81   40/  3/  8 1020.3F
MAYPORT                    78 81   80/  9/ 13 1020.3F
31.4N   80.9W              77 79   90/  8/ 10 1020.2F   2/ 9   2/ 9
ST AUGUSTINE               77 81   60/ 12/ 13 1020.1F

$$
FLZ040-043>046-052-053-057-058-063-144-262300-
INTERIOR CENTRAL FLORIDA

CITY           SKY/WX    TMP DP  RH WIND       PRES   REMARKS
OCALA          MOSUNNY   86  52  30 NE9       30.07F
THE VILLAGES     N/A     86  55  35 MISG      29.97S
LEESBURG       SUNNY     85  52  32 E15       30.07F
SANFORD        MOSUNNY   80  60  50 E14       30.08F
ORLANDO EXEC   MOSUNNY   82  62  50 E13       30.07F
ORLANDO INTL   MOSUNNY   84  60  44 NE15G21   30.06F
KISSIMMEE      MOSUNNY   82  61  47 E16       30.06F
WINTER HAVEN   SUNNY     86  54  33 NE8       30.06F
LAKELAND       MOSUNNY   84  57  39 E12       30.05S
BARTOW         FAIR      84  57  39 E9        30.05F
OKEECHOBEE     MOSUNNY   81  63  54 E12G18    30.05F

$$
FLZ041-047-054-059-064-141-147-262300-
EAST CENTRAL FLORIDA

CITY           SKY/WX    TMP DP  RH WIND       PRES   REMARKS
DAYTONA BEACH  MOSUNNY   80  64  58 E14       30.09F
DELAND           N/A     81  59  47 NE13      30.09F
NEW SMYRNA BEA MOSUNNY   81  64  57 NE7G15    30.10F
JFK SPACE CTR  PTSUNNY   80  64  56 E8        30.07F
TITUSVILLE     MOSUNNY   82  57  42 E17       30.08F
CAPE CANAVERAL SUNNY     81  63  54 E8        30.06F
PATRICK AFB    SUNNY     81  64  56 E12       30.06F
MELBOURNE      MOSUNNY   81  63  54 E15       30.07F
VERO BEACH     MOSUNNY   81  62  52 NE18      30.06F
FT PIERCE      MOSUNNY   80  65  59 NE13G22   30.05F
STUART         MOSUNNY   84  66  54 E14       30.06F

STATION/POSITION SKY/WX   TEMP    WIND        PRES    WAVE   SWELL
                          AIR SEA DIR/SP/G            HT/PER HT/PER
                          (F)     (DEG/KT/KT) (MB)    (FT/S) (FT/S)
28.5N   80.2W              78 79   60/ 12/ 14 1019.1F
28.9N   78.5W              77 79   70/ 16/ 17 1019.0F
TRIDENT PIER               81 81   60/ 10/ 15 1019.0F
28.4N   80.5W                 81                N/A     2/ 5
27.5N   80.2W                 80                N/A     3/ 6

$$
FLZ050-056-061-142-242-148-248-149-249-151-251-155-255-
160-260-262300-
WEST CENTRAL FLORIDA

CITY           SKY/WX    TMP DP  RH WIND       PRES   REMARKS
CRYSTAL RIVER  FAIR      88  52  29 SE7       30.04F
INVERNESS      PTSUNNY   86  61  42 E6        30.06F
BROOKSVILLE    MOSUNNY   86  56  35 E12G20    30.05F
ZEPHYRHILLS    FAIR      85  53  33 NE12      30.05F
CLEARWATER AIR CLOUDY    86  57  37 E5        30.03F
ST PETE CLEARW CLOUDY    87  58  37 E7        30.03F
TAMPA INTL     MOSUNNY   87  57  35 NE10G18   30.04F
TAMPA EXEC     MOSUNNY   88  59  37 E6        30.05S
PLANT CITY     PTSUNNY   88  61  40 E10       30.06S
MACDILL AFB    PTSUNNY   87  60  39 E15       30.03F
PETER O KNIGHT MOSUNNY   90  61  37 E12       30.04S
ST PETERSBURG  PTSUNNY   86  61  42 E8        30.02F
SARASOTA       MOSUNNY   89  55  31 E8        30.01F
VENICE         NOT AVBL

STATION/POSITION SKY/WX   TEMP    WIND        PRES    WAVE   SWELL
                          AIR SEA DIR/SP/G            HT/PER HT/PER
                          (F)     (DEG/KT/KT) (MB)    (FT/S) (FT/S)
27.3N   84.2W                 81                N/A     3/ 6
CLEARWATER BEACH           80 82  320/ 15/ 16 1017.6F
MIDDLE TAMPA BAY           84      80/  9/ 14 1017.6F
VENICE                     86 80   30/  8/ 12 1016.0F

$$
FLZ066-069-070-075>078-162-262-165-265-262300-
SOUTHWEST FLORIDA AND KEYS

CITY           SKY/WX    TMP DP  RH WIND       PRES   REMARKS
PUNTA GORDA    MOSUNNY   87  61  41 E15       30.03F
FT MYERS       PTSUNNY   87  61  41 E14       30.00F
SOUTHWEST INTL PTSUNNY   85  63  47 E15       30.01F
NAPLES         PTSUNNY   87  62  43 E12       30.00F
MARCO ISLAND   PTSUNNY   88  63  42 E8        30.01F
MARATHON       SUNNY     84  60  44 NE14      29.99F
KEY WEST NAS   MOSUNNY   84  59  42 E9        30.00F
KEY WEST INTL  SUNNY     85  56  37 E9        30.00F

STATION/POSITION SKY/WX   TEMP    WIND        PRES    WAVE   SWELL
                          AIR SEA DIR/SP/G            HT/PER HT/PER
                          (F)     (DEG/KT/KT) (MB)    (FT/S) (FT/S)
NAPLES                        84              1016.3S
26.0N   85.6W              80 82   70/ 10/ 12 1017.6F   5/ 6   5/ 6
DRY TORTUGAS               80      40/ 10/ 11 1016.3F
SAND KEY                   81      90/  8/ 10 1016.3F
LONG KEY                   81 84   80/ 11/ 12 1016.0F
MOLASSES REEF              80      80/ 11       N/A

$$
FLZ067-068-071>074-168-172>174-262300-
SOUTHEAST FLORIDA

CITY           SKY/WX    TMP DP  RH WIND       PRES   REMARKS
W PALM BEACH   MOSUNNY   83  62  49 E15G22    30.04F
FT LAUDER-EXEC SUNNY     82  63  52 NE12      30.02F
FT LAUDERDALE  PTSUNNY   84  64  50 NE14G21   30.01F
POMPANO BEACH  MOSUNNY   83  65  54 NE13      30.02F
PEMBROKE PINES PTSUNNY   83  64  52 NE15      30.03F
OPA LOCKA      PTSUNNY   82  63  52 E17       30.02F
MIAMI          PTSUNNY   82  64  54 NE15G24   30.01F
WEST KENDALL   MOSUNNY   82  66  58 E21       30.01S
HOMESTEAD      MOSUNNY   82  69  65 NE16G22   30.00F

STATION/POSITION SKY/WX   TEMP    WIND        PRES    WAVE   SWELL
                          AIR SEA DIR/SP/G            HT/PER HT/PER
                          (F)     (DEG/KT/KT) (MB)    (FT/S) (FT/S)
PORT EVERGLADES            80      50/ 11/ 16 1016.5F
VIRGINIA KEY               79 83   80/ 16/ 20 1016.6F
LAKE WORTH                 79 83   50/ 15/ 16 1017.3F
FOWEY ROCKS                80 83   50/ 18/ 20 1016.7F
SETTLEMENT POINT           79      60/ 15/ 17 1017.6F

$$





USA.gov is the U.S. government's official web portal to all federal, state and local government web resources and services.